GW5848 Weather Reports


time (UTC)temp
C
wind
direction
speed
KPH
gust
KPH
rain 1hr
cm
rain 24hr
cm
rain mn
cm
humidity
%
barometer
mb
20260504024003 5 126 0.0 0.0 0.00 0.00 0.00 78 1015.3
20260504023503 5 126 0.0 0.0 0.00 0.00 0.00 77 1015.4
20260504023007 5 126 0.0 0.0 0.00 0.00 0.00 76 1015.4
20260504022503 5 126 0.0 0.0 0.00 0.00 0.00 74 1015.4
20260504022004 5 126 0.0 0.0 0.00 0.00 0.00 73 1015.4
20260504021512 5 126 0.0 0.0 0.00 0.00 0.00 73 1015.2
20260504021006 5 126 0.0 0.0 0.00 0.00 0.00 74 1015.2
20260504020503 5 126 0.0 1.6 0.00 0.00 0.00 73 1015.2
20260504020020 5 126 0.0 3.2 0.00 0.00 0.00 73 1015.2
20260504015505 5 121 1.6 3.2 0.00 0.00 0.00 74 1015.2
20260504015007 5 109 0.0 1.6 0.00 0.00 0.00 72 1015.1
20260504014538 5 326 0.0 0.0 0.00 0.00 0.00 70 1015.1
20260504014006 6 326 0.0 1.6 0.00 0.00 0.00 68 1015.1
20260504013510 6 324 1.6 1.6 0.00 0.00 0.00 69 1015.1
20260504013011 6 21 0.0 3.2 0.00 0.00 0.00 67 1015.0
20260504012505 6 21 1.6 3.2 0.00 0.00 0.00 66 1014.8
20260504012003 7 42 0.0 1.6 0.00 0.00 0.00 64 1014.8
20260504011507 8 60 0.0 4.8 0.00 0.00 0.00 62 1014.7
20260504011004 8 81 0.0 4.8 0.00 0.00 0.00 57 1014.6
20260504010510 8 89 0.0 4.8 0.00 0.00 0.00 56 1014.6
20260504010014 8 84 1.6 4.8 0.00 0.00 0.00 56 1014.6
20260504005503 8 94 0.0 4.8 0.00 0.00 0.00 56 1014.7
20260504005006 9 89 1.6 4.8 0.00 0.00 0.00 53 1014.7
20260504004519 9 99 0.0 4.8 0.00 0.00 0.00 51 1014.6
20260504004004 10 103 1.6 4.8 0.00 0.00 0.00 51 1014.6
20260504003509 10 104 3.2 4.8 0.00 0.00 0.00 49 1014.5
20260504003022 10 109 1.6 4.8 0.00 0.00 0.00 49 1014.4
20260504002509 10 93 1.6 4.8 0.00 0.00 0.00 47 1014.4
20260504002010 11 99 1.6 3.2 0.00 0.00 0.00 46 1014.4
20260504001528 11 110 0.0 3.2 0.00 0.00 0.00 46 1014.4
20260504001004 12 108 1.6 3.2 0.00 0.00 0.00 44 1014.4
20260504000503 12 91 0.0 1.6 0.00 0.00 0.00 45 1014.3
20260504000020 13 91 0.0 1.6 0.00 0.00 0.00 43 1014.2
20260503235505 13 121 0.0 1.6 0.00 0.00 0.00 39 1014.2
20260503235003 15 345 0.0 0.0 0.00 0.00 0.00 38 1014.2
20260503234512 15 345 0.0 0.0 0.00 0.00 0.00 34 1014.2
20260503234005 16 345 0.0 0.0 0.00 0.00 0.00 33 1014.2
20260503233504 16 345 0.0 1.6 0.00 0.00 0.00 31 1014.2
20260503233020 17 345 0.0 1.6 0.00 0.00 0.00 29 1014.2
20260503232510 17 345 0.0 1.6 0.00 0.00 0.00 29 1014.2
20260503232010 17 345 0.0 1.6 0.00 0.00 0.00 28 1014.1
20260503231520 17 345 0.0 1.6 0.00 0.00 0.00 28 1014.1
20260503231009 17 345 0.0 1.6 0.00 0.00 0.00 26 1014.0
20260503230510 17 42 0.0 4.8 0.00 0.00 0.00 25 1014.0
20260503230025 17 321 0.0 6.4 0.00 0.00 0.00 26 1013.9
20260503225506 17 301 0.0 6.4 0.00 0.00 0.00 25 1014.0
20260503225003 16 56 1.6 9.7 0.00 0.00 0.00 24 1013.9
20260503224509 16 359 0.0 9.7 0.00 0.00 0.00 24 1014.0
20260503224009 17 327 3.2 6.4 0.00 0.00 0.00 22 1013.9
20260503223503 17 318 3.2 8.0 0.00 0.00 0.00 22 1013.9
20260503223013 17 314 4.8 12.9 0.00 0.00 0.00 24 1013.9
20260503222505 17 315 4.8 12.9 0.00 0.00 0.00 26 1013.8
20260503222007 17 330 4.8 14.5 0.00 0.00 0.00 25 1013.8
20260503221518 17 55 1.6 14.5 0.00 0.00 0.00 27 1013.8
20260503221009 17 333 3.2 14.5 0.00 0.00 0.00 26 1014.0
20260503220508 17 313 6.4 14.5 0.00 0.00 0.00 24 1014.0
20260503220027 17 290 6.4 14.5 0.00 0.00 0.00 24 1014.1
20260503215507 17 310 4.8 12.9 0.00 0.00 0.00 25 1014.0
20260503215012 17 337 3.2 11.3 0.00 0.00 0.00 24 1014.1
20260503214531 17 358 3.2 12.9 0.00 0.00 0.00 23 1014.1
20260503214004 17 302 4.8 14.5 0.00 0.00 0.00 24 1014.1
20260503213507 17 280 6.4 14.5 0.00 0.00 0.00 23 1014.2
20260503213012 17 7 3.2 16.1 0.00 0.00 0.00 24 1014.2
20260503212504 17 327 6.4 16.1 0.00 0.00 0.00 25 1014.2
20260503212005 17 285 8.0 20.9 0.00 0.00 0.00 24 1014.3
20260503211515 16 326 3.2 20.9 0.00 0.00 0.00 24 1014.2
20260503211004 17 337 9.7 16.1 0.00 0.00 0.00 26 1014.2
20260503210505 17 345 4.8 14.5 0.00 0.00 0.00 28 1014.3
20260503210038 17 323 4.8 11.3 0.00 0.00 0.00 24 1014.3
20260503205511 16 276 0.0 9.7 0.00 0.00 0.00 27 1014.5
20260503205007 16 257 6.4 17.7 0.00 0.00 0.00 28 1014.5
20260503204526 16 245 1.6 17.7 0.00 0.00 0.00 26 1014.5
20260503204015 16 307 12.9 17.7 0.00 0.00 0.00 25 1014.4
20260503203507 16 311 3.2 12.9 0.00 0.00 0.00 26 1014.5
20260503203029 16 214 3.2 17.7 0.00 0.00 0.00 25 1014.5
20260503202504 16 297 8.0 17.7 0.00 0.00 0.00 24 1014.6
20260503202004 16 209 4.8 14.5 0.00 0.00 0.00 27 1014.7
20260503201513 16 311 3.2 14.5 0.00 0.00 0.00 27 1014.8
20260503201004 16 349 3.2 14.5 0.00 0.00 0.00 29 1014.9
20260503200505 16 52 3.2 17.7 0.00 0.00 0.00 26 1014.7
20260503200017 16 291 6.4 17.7 0.00 0.00 0.00 25 1015.0
20260503195507 16 274 1.6 12.9 0.00 0.00 0.00 28 1015.0
20260503195007 16 317 4.8 17.7 0.00 0.00 0.00 25 1015.0
20260503194523 16 319 9.7 17.7 0.00 0.00 0.00 28 1015.0
20260503194007 16 327 8.0 19.3 0.00 0.00 0.00 27 1015.2
20260503193506 16 299 4.8 25.7 0.00 0.00 0.00 29 1015.2
20260503193023 15 311 9.7 25.7 0.00 0.00 0.00 27 1015.2
20260503192510 15 321 11.3 19.3 0.00 0.00 0.00 28 1015.3
20260503192010 15 312 9.7 16.1 0.00 0.00 0.00 27 1015.5
20260503191530 15 270 3.2 14.5 0.00 0.00 0.00 31 1015.5
20260503191003 15 56 8.0 14.5 0.00 0.00 0.00 29 1015.6
20260503190503 15 321 1.6 14.5 0.00 0.00 0.00 30 1015.7
20260503190012 15 296 8.0 17.7 0.00 0.00 0.00 27 1015.9
20260503185506 15 293 8.0 17.7 0.00 0.00 0.00 28 1016.0
20260503185011 15 290 6.4 19.3 0.00 0.00 0.00 30 1016.0
20260503184521 15 279 6.4 19.3 0.00 0.00 0.00 32 1016.0
20260503184011 15 268 9.7 19.3 0.00 0.00 0.00 31 1016.1
20260503183508 15 242 8.0 19.3 0.00 0.00 0.00 35 1016.3
20260503183026 15 288 11.3 16.1 0.00 0.00 0.00 30 1016.2
20260503182510 15 226 3.2 20.9 0.00 0.00 0.00 36 1016.2
20260503182012 14 65 4.8 20.9 0.00 0.00 0.00 36 1016.3
20260503181524 15 337 6.4 17.7 0.00 0.00 0.00 31 1016.3
20260503181004 14 306 4.8 12.9 0.00 0.00 0.00 33 1016.4
20260503180504 14 264 6.4 14.5 0.00 0.00 0.00 34 1016.4
20260503180010 13 224 3.2 24.1 0.00 0.00 0.00 32 1016.5
20260503175503 13 338 6.4 24.1 0.00 0.00 0.00 33 1016.6
20260503175003 13 313 11.3 17.7 0.00 0.00 0.00 31 1016.4
20260503174515 13 307 9.7 19.3 0.00 0.00 0.00 30 1016.5
20260503174010 13 293 6.4 19.3 0.00 0.00 0.00 33 1016.6
20260503173506 13 282 8.0 19.3 0.00 0.00 0.00 31 1016.5
20260503173021 13 321 8.0 16.1 0.00 0.00 0.00 35 1016.6
20260503172509 13 226 4.8 17.7 0.00 0.00 0.00 37 1016.6
20260503172013 13 311 8.0 22.5 0.00 0.00 0.00 34 1016.7
20260503171524 13 271 12.9 24.1 0.00 0.00 0.00 34 1016.9
20260503171009 12 341 9.7 24.1 0.00 0.00 0.00 34 1016.9
20260503170504 13 315 11.3 24.1 0.00 0.00 0.00 34 1017.0
20260503151009 10 303 11.3 20.9 0.00 0.00 0.00 40 1018.0
20260503150507 10 297 12.9 22.5 0.00 0.00 0.00 41 1018.1
20260503131004 8 321 8.0 19.3 0.00 0.00 0.00 49 1017.9
20260503130505 8 319 3.2 14.5 0.00 0.00 0.00 52 1017.9
20260503110515 2 108 0.0 1.6 0.00 0.00 0.00 76 1017.1
20260503090502 5 313 1.6 12.9 0.00 0.00 0.00 65 1015.5
20260503081505 5 317 3.2 9.7 0.00 0.00 0.00 67 1015.3
20260503081003 5 307 0.0 9.7 0.00 0.00 0.00 67 1015.3
20260503080503 5 323 3.2 8.0 0.00 0.00 0.00 68 1015.3
20260503071514 5 321 1.6 8.0 0.00 0.00 0.00 68 1014.7
20260503071002 5 326 3.2 8.0 0.00 0.00 0.00 67 1014.7
20260503070504 5 318 1.6 6.4 0.00 0.00 0.00 70 1014.6
20260503055003 3 16 0.0 1.6 0.00 0.00 0.00 75 1014.6
20260503054507 3 337 0.0 0.0 0.00 0.00 0.00 72 1014.5
20260503054002 4 338 0.0 0.0 0.00 0.00 0.00 72 1014.6
20260503053503 4 337 0.0 1.6 0.00 0.00 0.00 71 1014.6
20260503053008 4 337 0.0 1.6 0.00 0.00 0.00 70 1014.5
20260503052505 5 335 0.0 1.6 0.00 0.00 0.00 69 1014.6
20260503052004 5 104 0.0 1.6 0.00 0.00 0.00 67 1014.5
20260503051508 5 288 0.0 1.6 0.00 0.00 0.00 66 1014.4
20260503050009 6 306 1.6 8.0 0.00 0.00 0.00 63 1014.5
20260503045007 6 327 3.2 8.0 0.00 0.00 0.00 62 1014.6
20260503044523 6 321 1.6 6.4 0.00 0.00 0.00 61 1014.5
20260503044003 6 309 1.6 8.0 0.00 0.00 0.00 61 1014.5
20260503043503 7 320 1.6 8.0 0.00 0.00 0.00 60 1014.6
20260503043013 7 316 1.6 4.8 0.00 0.00 0.00 60 1014.6
20260503042503 7 319 3.2 4.8 0.00 0.00 0.00 59 1014.6
20260503042003 7 311 1.6 8.0 0.00 0.00 0.00 59 1014.6
20260503041512 7 306 3.2 14.5 0.00 0.00 0.00 58 1014.5
20260503041003 7 335 4.8 14.5 0.00 0.00 0.00 58 1014.6
20260503040506 7 309 3.2 11.3 0.00 0.00 0.00 58 1014.6
20260503040011 7 332 3.2 12.9 0.00 0.00 0.00 58 1014.5
20260503035003 7 323 1.6 6.4 0.00 0.00 0.00 57 1014.4
20260503034513 7 320 3.2 8.0 0.00 0.00 0.00 56 1014.4
20260503034004 7 307 1.6 8.0 0.00 0.00 0.00 55 1014.4
20260503033503 8 306 1.6 9.7 0.00 0.00 0.00 54 1014.3
20260503032503 8 309 3.2 16.1 0.00 0.00 0.00 53 1014.3
20260503032004 8 353 3.2 16.1 0.00 0.00 0.00 53 1014.3
20260503031514 8 321 4.8 16.1 0.00 0.00 0.00 53 1014.3
20260503031004 8 326 4.8 19.3 0.00 0.00 0.00 52 1014.3
20260503030506 8 325 4.8 19.3 0.00 0.00 0.00 52 1014.2
20260503030017 8 346 6.4 16.1 0.00 0.00 0.00 52 1014.2
20260503025504 8 324 1.6 6.4 0.00 0.00 0.00 53 1014.2
20260503025003 8 218 0.0 1.6 0.00 0.00 0.00 54 1014.2
20260503024515 8 321 0.0 4.8 0.00 0.00 0.00 52 1014.1